When you browse on this site, cookies collect data to enhance your experience and personalize the content and advertising you see.
Visit our Privacy Policy to learn more. By continuing to use the site, you agree to this use of cookies and data.
  • In Austria
  • List of Countries
  • For 7 days
  • Water Temperature
  • Satellite Maps
  • Weather Map
  • News
  • Weather Widgets
  • user-avatar
    Login

    Hourly Weather San Luis

    Today, 23 January, Wednesday

    Time Temperature Precipitation Wind Pressure Humidity
    00:00 +30°C° 0.2 mm 4 mps 696 mmHg 52%
    01:00 +30°C° 0.2 mm 3 mps 696 mmHg 53%
    02:00 +29°C° 0.2 mm 3 mps 697 mmHg 54%
    03:00 +28°C° 0.8 mm 3 mps 697 mmHg 59%
    04:00 +28°C° 0.8 mm 2 mps 697 mmHg 64%
    05:00 +27°C° 0.8 mm 2 mps 697 mmHg 69%
    06:00 +28°C° 0.3 mm 2 mps 697 mmHg 64%
    07:00 +30°C° 0.3 mm 3 mps 698 mmHg 59%
    08:00 +31°C° 0.3 mm 3 mps 698 mmHg 54%
    09:00 +34°C° 0.1 mm 2 mps 699 mmHg 49%
    10:00 +35°C° 0.1 mm 2 mps 699 mmHg 44%
    11:00 +37°C° 0.1 mm 2 mps 699 mmHg 39%
    12:00 +37°C° 0.1 mm 2 mps 698 mmHg 37%
    13:00 +38°C° 0.1 mm 2 mps 698 mmHg 35%
    14:00 +38°C° 0.1 mm 2 mps 698 mmHg 34%
    15:00 +38°C° 0 mm 3 mps 697 mmHg 34%
    16:00 +38°C° 0 mm 4 mps 696 mmHg 34%
    17:00 +38°C° 0 mm 4 mps 696 mmHg 35%
    18:00 +36°C° 0.1 mm 4 mps 696 mmHg 38%
    19:00 +35°C° 0.1 mm 4 mps 695 mmHg 42%
    20:00 +33°C° 0.1 mm 3 mps 695 mmHg 46%
    21:00 +33°C° 0 mm 4 mps 696 mmHg 48%
    22:00 +32°C° 0 mm 4 mps 696 mmHg 49%
    23:00 +32°C° 0 mm 4 mps 696 mmHg 50%

    Tomorrow, 24 January, Thursday

    Time Temperature Precipitation Wind Pressure Humidity
    00:00 +30°C° 0.2 mm 5 mps 696 mmHg 51%
    01:00 +30°C° 0.2 mm 6 mps 696 mmHg 52%
    02:00 +30°C° 0.2 mm 7 mps 696 mmHg 53%
    03:00 +30°C° 0 mm 7 mps 696 mmHg 53%
    04:00 +30°C° 0 mm 7 mps 696 mmHg 54%
    05:00 +29°C° 0 mm 6 mps 695 mmHg 54%
    06:00 +32°C° 0 mm 7 mps 696 mmHg 50%
    07:00 +33°C° 0 mm 8 mps 696 mmHg 46%
    08:00 +34°C° 0 mm 9 mps 697 mmHg 42%
    09:00 +37°C° 0 mm 9 mps 697 mmHg 38%
    10:00 +39°C° 0 mm 9 mps 697 mmHg 35%
    11:00 +40°C° 0 mm 9 mps 697 mmHg 32%
    12:00 +42°C° 0 mm 9 mps 696 mmHg 30%
    13:00 +42°C° 0 mm 9 mps 696 mmHg 29%
    14:00 +43°C° 0 mm 9 mps 695 mmHg 28%
    15:00 +43°C° 0 mm 9 mps 695 mmHg 27%
    16:00 +43°C° 0 mm 8 mps 694 mmHg 27%
    17:00 +43°C° 0 mm 8 mps 694 mmHg 27%
    18:00 +40°C° 0 mm 7 mps 693 mmHg 29%
    19:00 +38°C° 0 mm 6 mps 693 mmHg 32%
    20:00 +36°C° 0 mm 5 mps 693 mmHg 34%
    21:00 +35°C° 0 mm 7 mps 693 mmHg 35%
    22:00 +35°C° 0 mm 8 mps 693 mmHg 35%
    23:00 +36°C° 0 mm 10 mps 694 mmHg 35%

    Day after tomorrow, 25 January, Friday

    Time Temperature Precipitation Wind Pressure Humidity
    00:00 +34°C° 0 mm 10 mps 693 mmHg 39%
    01:00 +34°C° 0 mm 10 mps 693 mmHg 43%
    02:00 +33°C° 0 mm 11 mps 693 mmHg 47%
    03:00 +33°C° 0 mm 10 mps 693 mmHg 48%
    04:00 +33°C° 0 mm 10 mps 693 mmHg 48%
    05:00 +32°C° 0 mm 9 mps 693 mmHg 48%
    06:00 +33°C° 0 mm 9 mps 693 mmHg 46%
    07:00 +34°C° 0 mm 9 mps 694 mmHg 44%
    08:00 +35°C° 0 mm 9 mps 694 mmHg 42%
    09:00 +38°C° 0 mm 7 mps 695 mmHg 39%
    10:00 +39°C° 0 mm 6 mps 695 mmHg 35%
    11:00 +40°C° 0 mm 4 mps 695 mmHg 32%
    12:00 +38°C° 0.4 mm 4 mps 695 mmHg 34%
    13:00 +38°C° 0.4 mm 4 mps 695 mmHg 36%
    14:00 +37°C° 0.4 mm 3 mps 694 mmHg 39%
    15:00 +38°C° 0 mm 4 mps 694 mmHg 37%
    16:00 +38°C° 0 mm 4 mps 694 mmHg 36%
    17:00 +40°C° 0 mm 4 mps 694 mmHg 35%
    18:00 +37°C° 0.1 mm 4 mps 694 mmHg 39%
    19:00 +36°C° 0.1 mm 4 mps 694 mmHg 44%
    20:00 +35°C° 0.1 mm 4 mps 695 mmHg 49%
    21:00 +34°C° 0.1 mm 3 mps 695 mmHg 52%
    22:00 +33°C° 0.1 mm 3 mps 695 mmHg 56%
    23:00 +31°C° 0.1 mm 3 mps 695 mmHg 59%

    26 January, Saturday

    Time Temperature Precipitation Wind Pressure Humidity
    00:00 +30°C° 0 mm 3 mps 696 mmHg 59%
    01:00 +30°C° 0 mm 2 mps 696 mmHg 59%
    02:00 +30°C° 0 mm 1 mps 696 mmHg 59%
    03:00 +29°C° 2.7 mm 1 mps 696 mmHg 65%
    04:00 +28°C° 2.7 mm 1 mps 697 mmHg 71%
    05:00 +27°C° 2.7 mm 2 mps 697 mmHg 78%
    06:00 +28°C° 0.5 mm 3 mps 697 mmHg 73%
    07:00 +28°C° 0.5 mm 4 mps 698 mmHg 69%
    08:00 +29°C° 0.5 mm 5 mps 699 mmHg 65%
    09:00 +30°C° 0.1 mm 6 mps 699 mmHg 60%
    10:00 +30°C° 0.1 mm 7 mps 700 mmHg 55%
    11:00 +32°C° 0.1 mm 7 mps 700 mmHg 51%
    12:00 +33°C° 0 mm 7 mps 700 mmHg 46%
    13:00 +34°C° 0 mm 6 mps 699 mmHg 41%
    14:00 +35°C° 0 mm 6 mps 699 mmHg 37%
    15:00 +35°C° 0 mm 6 mps 699 mmHg 39%
    16:00 +35°C° 0 mm 7 mps 698 mmHg 41%
    17:00 +34°C° 0 mm 7 mps 698 mmHg 43%
    18:00 +32°C° 0 mm 7 mps 697 mmHg 51%
    19:00 +30°C° 0 mm 6 mps 697 mmHg 59%
    20:00 +28°C° 0 mm 6 mps 697 mmHg 67%
    21:00 +27°C° 0 mm 5 mps 697 mmHg 70%
    22:00 +26°C° 0 mm 5 mps 698 mmHg 73%
    23:00 +26°C° 0 mm 5 mps 698 mmHg 77%

    27 January, Sunday

    Time Temperature Precipitation Wind Pressure Humidity
    00:00 +25°C° 0 mm 5 mps 698 mmHg 76%
    01:00 +25°C° 0 mm 4 mps 697 mmHg 74%
    02:00 +25°C° 0 mm 4 mps 697 mmHg 73%
    03:00 +25°C° 0 mm 4 mps 697 mmHg 71%
    04:00 +25°C° 0 mm 3 mps 696 mmHg 69%
    05:00 +25°C° 0 mm 3 mps 696 mmHg 66%
    06:00 +26°C° 0 mm 3 mps 697 mmHg 60%
    07:00 +28°C° 0 mm 3 mps 697 mmHg 55%
    08:00 +29°C° 0 mm 3 mps 697 mmHg 49%
    09:00 +31°C° 0 mm 2 mps 698 mmHg 45%
    10:00 +34°C° 0 mm 2 mps 698 mmHg 41%
    11:00 +34°C° 0 mm 1 mps 698 mmHg 38%
    12:00 +35°C° 0 mm 1 mps 697 mmHg 34%
    13:00 +36°C° 0 mm 1 mps 697 mmHg 31%
    14:00 +37°C° 0 mm 1 mps 696 mmHg 28%
    15:00 +39°C° 0 mm 1 mps 696 mmHg 28%
    16:00 +39°C° 0 mm 1 mps 695 mmHg 28%
    17:00 +39°C° 0 mm 1 mps 695 mmHg 28%
    18:00 +37°C° 0 mm 2 mps 695 mmHg 35%
    19:00 +35°C° 0 mm 3 mps 695 mmHg 42%
    20:00 +33°C° 0 mm 4 mps 694 mmHg 50%
    21:00 +32°C° 0 mm 4 mps 695 mmHg 53%
    22:00 +30°C° 0 mm 3 mps 695 mmHg 57%
    23:00 +30°C° 0 mm 3 mps 695 mmHg 60%

    28 January, Monday

    Time Temperature Precipitation Wind Pressure Humidity
    00:00 +29°C° 0 mm 4 mps 695 mmHg 63%
    01:00 +29°C° 0 mm 4 mps 694 mmHg 66%
    02:00 +28°C° 0 mm 4 mps 694 mmHg 69%
    03:00 +28°C° 0 mm 4 mps 694 mmHg 70%
    04:00 +28°C° 0 mm 4 mps 694 mmHg 71%
    05:00 +28°C° 0 mm 4 mps 694 mmHg 72%
    06:00 +29°C° 0 mm 4 mps 695 mmHg 66%
    07:00 +30°C° 0 mm 4 mps 696 mmHg 60%
    08:00 +33°C° 0 mm 4 mps 696 mmHg 54%
    09:00 +34°C° 0 mm 4 mps 696 mmHg 48%
    10:00 +36°C° 0 mm 3 mps 696 mmHg 42%
    11:00 +37°C° 0 mm 3 mps 696 mmHg 37%
    12:00 +38°C° 0.1 mm 3 mps 696 mmHg 36%
    13:00 +38°C° 0.1 mm 3 mps 695 mmHg 35%
    14:00 +38°C° 0.1 mm 3 mps 695 mmHg 34%
    15:00 +38°C° 0.1 mm 3 mps 694 mmHg 35%
    16:00 +38°C° 0.1 mm 3 mps 694 mmHg 36%
    17:00 +38°C° 0.1 mm 3 mps 693 mmHg 37%
    18:00 +36°C° 0.1 mm 3 mps 693 mmHg 42%
    19:00 +35°C° 0.1 mm 3 mps 693 mmHg 46%
    20:00 +33°C° 0.1 mm 4 mps 693 mmHg 51%
    21:00 +33°C° 0 mm 4 mps 693 mmHg 53%
    22:00 +32°C° 0 mm 5 mps 693 mmHg 55%
    23:00 +30°C° 0 mm 6 mps 693 mmHg 57%
    Show more